Location: Maccacari
(45.1333°N, 11.1333°E)
Time: 23:15:13
(UTC+00:00)

USA 238 DEB - Pass Details

Date: 18 September 2020
Orbit: 1006 x 1206 km, 63.4° (Epoch: 15 October)

Event Time Altitude Azimuth Distance (km) Brightness Sun altitude
Rises 19:33:12 0° 321° (NW) 3,949 7.8 -23.3°
Reaches altitude 10° 19:35:50 10° 321° (NW) 3,016 7.0 -23.8°
Maximum altitude 19:43:06 85° 234° (SW) 1,177 3.8 -24.9°
Enters shadow 19:45:39 46° 151° (SSE) 1,543 4.1 -25.3°
